Weather History for Cleveland Cuyahoga, OH

Change the Weather History Date:

Tuesday, April 22, 2014

  Actual Average Record
Temperature  
Mean Temperature 52 °F -  
Max Temperature 59 °F 57 °F 78 °F (2007)
Min Temperature 42 °F 41 °F 35 °F (2005)
Degree Days  
Heating Degree Days 14    
Growing Degree Days 2 (Base 50)    
Moisture  
Dew Point 45 °F    
Average Humidity 84    
Maximum Humidity 100    
Minimum Humidity 58    
Precipitation  
Precipitation 0.00 in - - ()
Sea Level Pressure  
Sea Level Pressure 29.75 in    
Wind  
Wind Speed 13 mph (NW)    
Max Wind Speed 17 mph    
Max Gust Speed 23 mph    
Visibility 4 miles    
Events Fog , Rain    
Averages and records for this station are not official NWS values.
T = Trace of Precipitation, MM = Missing Value Source: NWS Daily Summary

Daily Weather History Graph

Daily Weather History Graph

Search for Another Location

Airport:

Trip Planner

Search our weather history database for the weather conditions in past years. The results will help you decide how hot, cold, wet, or windy it might be!

Date:

Astronomy

Apr. 22, 2014 Rise Set
Actual Time 6:35 AM EDT 8:14 PM EDT
Civil Twilight 6:06 AM EDT 8:43 PM EDT
Nautical Twilight 5:30 AM EDT 9:19 PM EDT
Astronomical Twilight 4:52 AM EDT 9:57 PM EDT
Moon 2:28 AM EDT (4/22) 1:08 PM EDT (4/22)
Length of Visible Light 14h 37m
Length of Day
13h 38m
Last Quarter, 46% of the Moon is Illuminated
Apr 22
Last Quarter
Apr 29
New
May 6
First Quarter
May 14
Full
May 21
Last Quarter

Hourly Weather History & Observations

Time (EDT) Temp. Windchill Dew Point Humidity Pressure Visibility Wind Dir Wind Speed Gust Speed Precip Events Conditions
6:45 AM 57.2 °F - 53.6 °F 88% 29.68 in 5.0 mi SW 11.5 mph - N/A Rain Light Rain
7:45 AM 59.0 °F - 53.6 °F 82% 29.68 in 5.0 mi WSW 11.5 mph - N/A Rain Light Rain Showers
8:45 AM 59.0 °F - 55.4 °F 88% 29.68 in 5.0 mi WNW 11.5 mph - N/A Rain Light Rain
9:45 AM 57.2 °F - 53.6 °F 88% 29.69 in 5.0 mi West 16.1 mph - N/A Rain Light Rain
10:16 AM 57.2 °F - 53.6 °F 88% 29.69 in 5.0 mi West 13.8 mph - N/A Rain Light Rain
10:27 AM 48.2 °F - 46.4 °F 93% 29.71 in 0.2 mi West 11.5 mph 23.0 mph N/A Fog Fog
10:45 AM 46.4 °F 40.1 °F 44.6 °F 93% 29.73 in 2.5 mi North 15.0 mph - N/A Rain Light Rain
11:45 AM 46.4 °F 41.1 °F 44.6 °F 93% 29.74 in 1.5 mi NNE 11.5 mph - N/A   Light Drizzle
12:45 PM 44.6 °F 38.8 °F 44.6 °F 100% 29.74 in 2.0 mi NNE 11.5 mph - N/A   Light Drizzle
1:45 PM 44.6 °F 39.7 °F 44.6 °F 100% 29.75 in 0.8 mi North 9.2 mph - N/A   Light Drizzle
2:45 PM 44.6 °F 40.2 °F 44.6 °F 100% 29.76 in 1.0 mi NNW 8.1 mph - N/A   Light Drizzle
3:45 PM 48.2 °F - 44.6 °F 87% 29.76 in 4.0 mi NNW 11.5 mph - N/A   Overcast
4:00 PM 50.0 °F - 44.6 °F 82% 29.76 in 5.0 mi NW 11.5 mph - N/A   Haze
4:45 PM 50.0 °F - 44.6 °F 82% 29.76 in 7.0 mi NW 15.0 mph - N/A   Mostly Cloudy
5:45 PM 50.0 °F - 35.6 °F 58% 29.78 in 7.0 mi NW 15.0 mph - N/A   Mostly Cloudy
6:45 PM 48.2 °F - 35.6 °F 62% 29.79 in 7.0 mi NNW 16.1 mph - N/A   Overcast
7:45 PM 46.4 °F 39.8 °F 35.6 °F 66% 29.80 in 7.0 mi NNW 16.1 mph - N/A   Overcast
8:45 PM 44.6 °F 37.2 °F 35.6 °F 71% 29.83 in 7.0 mi North 17.3 mph - N/A   Overcast
9:45 PM 42.8 °F 34.8 °F 35.6 °F 76% 29.87 in 7.0 mi North 17.3 mph - N/A Rain Light Rain